Location: DARK SKY Beskydy - Park tmavé oblohy, www.darkskybeskydy.cz
(49.4926°N, 18.5016°E)
Time: 12:52:03
(UTC+02:00)

A-11 Canister half - Pass Details

Date: 24 February 2024
Orbit: 1513 x 1687 km, 47.2° (Epoch: 12 April)

Event Time Altitude Azimuth Distance (km) Brightness Sun altitude
Rises 08:02:03 0° 289° (WNW) 4,884 11.0 11.5°
Reaches altitude 10° 08:05:28 10° 282° (WNW) 3,872 10.6 12.0°
Maximum altitude 08:14:20 40° 218° (SW) 2,192 10.0 13.2°
Drops below altitude 10° 08:22:55 10° 153° (SSE) 3,734 12.3 14.4°
Sets 08:26:09 0° 146° (SE) 4,694 12.9 14.8°
